Weather History for Montague, CA

Change the Weather History Date:

Wednesday, July 17, 2013

  Actual Average Record
Temperature  
Mean Temperature 70 °F 74 °F  
Max Temperature 94 °F 92 °F 105 °F (1972)
Min Temperature 46 °F 55 °F 38 °F (1993)
Degree Days  
Heating Degree Days 0 0  
Month to date heating degree days 0 1  
Since 1 June heating degree days 70 94  
Since 1 July heating degree days 0 1  
Cooling Degree Days 5 9  
Month to date cooling degree days 179 116  
Year to date cooling degree days 318 187  
Since 1 June cooling degree days 306 174  
Growing Degree Days 18 (Base 50)    
Moisture  
Dew Point 30 °F    
Average Humidity 24    
Maximum Humidity 49    
Minimum Humidity 8    
Precipitation  
Precipitation 0.00 in 0.01 in 0.33 in (1976)
Month to date precipitation T 0.15  
Year to date precipitation 3.80 10.36  
Sea Level Pressure  
Sea Level Pressure 30.07 in    
Wind  
Wind Speed 4 mph (NW)    
Max Wind Speed 17 mph    
Max Gust Speed 24 mph    
Visibility 10 miles    
Events      
T = Trace of Precipitation, MM = Missing Value Source: NWS Daily Summary

Daily Weather History Graph

Daily Weather History Graph

Search for Another Location

Airport:

Trip Planner

Search our weather history database for the weather conditions in past years. The results will help you decide how hot, cold, wet, or windy it might be!

Date:

Astronomy

Jul. 17, 2013 Rise Set
Actual Time 5:50 AM PDT 8:41 PM PDT
Civil Twilight 5:17 AM PDT 9:14 PM PDT
Nautical Twilight 4:35 AM PDT 9:55 PM PDT
Astronomical Twilight 3:47 AM PDT 10:43 PM PDT
Moon 3:35 PM PDT (7/17) 1:02 AM PDT (7/17)
Length of Visible Light 15h 56m
Length of Day
14h 51m
Waxing Gibbous, 68% of the Moon is Illuminated
Jul 17
Waxing Gibbous
Jul 22
Full
Jul 29
Last Quarter
Aug 6
New
Aug 14
First Quarter

Hourly Weather History & Observations

Time (PDT) Temp. Dew Point Humidity Pressure Visibility Wind Dir Wind Speed Gust Speed Precip Events Conditions
12:53 AM 57.9 °F 28.9 °F 33% 30.03 in 10.0 mi Calm Calm - N/A   Clear
1:53 AM 55.0 °F 27.0 °F 34% 30.04 in 10.0 mi ENE 5.8 mph - N/A   Clear
2:53 AM 51.1 °F 28.9 °F 43% 30.05 in 10.0 mi Calm Calm - N/A   Clear
3:53 AM 53.1 °F 30.0 °F 41% 30.07 in 10.0 mi Calm Calm - N/A   Clear
4:53 AM 55.9 °F 30.9 °F 39% 30.07 in 10.0 mi Calm Calm - N/A   Clear
5:53 AM 46.9 °F 28.9 °F 50% 30.11 in 10.0 mi Calm Calm - N/A   Clear
6:53 AM 55.0 °F 30.9 °F 40% 30.12 in 10.0 mi Calm Calm - N/A   Clear
7:53 AM 62.1 °F 36.0 °F 38% 30.13 in 10.0 mi Calm Calm - N/A   Clear
8:53 AM 68.0 °F 32.0 °F 26% 30.13 in 10.0 mi Calm Calm - N/A   Clear
9:53 AM 73.0 °F 30.0 °F 20% 30.12 in 10.0 mi Calm Calm - N/A   Clear
10:53 AM 78.1 °F 25.0 °F 14% 30.11 in 10.0 mi Calm Calm - N/A   Clear
11:53 AM 81.0 °F 30.9 °F 16% 30.10 in 10.0 mi Calm Calm - N/A   Clear
12:53 PM 84.9 °F 25.0 °F 11% 30.10 in 10.0 mi WSW 5.8 mph - N/A   Clear
1:53 PM 87.1 °F 24.1 °F 10% 30.08 in 10.0 mi Variable 3.5 mph - N/A   Clear
2:53 PM 89.1 °F 28.0 °F 11% 30.07 in 10.0 mi NW 8.1 mph - N/A   Clear
3:53 PM 91.0 °F 21.9 °F 8% 30.05 in 10.0 mi WSW 5.8 mph - N/A   Clear
4:53 PM 91.0 °F 23.0 °F 8% 30.03 in 10.0 mi Variable 4.6 mph - N/A   Clear
5:53 PM 91.9 °F 21.0 °F 8% 30.02 in 10.0 mi WSW 4.6 mph - N/A   Clear
6:53 PM 91.0 °F 21.9 °F 8% 30.01 in 10.0 mi Calm Calm - N/A   Clear
7:53 PM 87.1 °F 32.0 °F 14% 30.02 in 10.0 mi NNW 10.4 mph - N/A   Clear
8:53 PM 81.0 °F 35.1 °F 19% 30.04 in 10.0 mi North 11.5 mph - N/A   Clear
9:53 PM 80.1 °F 41.0 °F 25% 30.06 in 10.0 mi NW 16.1 mph - N/A   Clear
10:53 PM 75.9 °F 43.0 °F 31% 30.08 in 10.0 mi NNW 15.0 mph - N/A   Clear
11:53 PM 71.1 °F 44.1 °F 38% 30.09 in 10.0 mi North 6.9 mph - N/A   Clear